Weather in Regita

Russia / Chechen Republic     43°05′46″N   46°07′28″E
temp.,
°C
wind,
m/s
gust,
m/s
humid.,
%
clouds,
%
prec.,
mm/h
press.,
hPa
HPBL,
m
26 october, tue
tue2600:00+1w1399100 2.1 1032319
03:00+1nw1299100 3.9 1033308
06:00+1wsw119596 0.6 1034239
09:00+3n217777 0.6 1033613
12:00+3n218094 0.1 1032644
15:00+3nne117998 0.1 1032652
18:00+1ne118787 0.1 1034233
21:000sse118815 0.1 103456
27 october, wed
wed2700:00−1sse22874 0.0 103315
03:00−1sse22823 0.0 103314
06:00−1sse22750 0.0 103214
09:00+5nne11570 0.0 1030231
12:00+8nne22540 0.0 1027506
15:00+8n11560 0.0 1025424
18:00+4s22730 0.0 102614
21:00+3s22700 0.0 102514
28 october, thu
thu2800:00+3s21690 0.0 102415
03:00+3s22690 0.0 102412
06:00+3s22640 0.0 102413
09:00+9ne11480 0.0 1023169
12:00+11nnw21490 0.0 1022532
15:00+10nw22510 0.0 1022525
18:00+6ssw22730 0.0 102414
21:00+5ssw22740 0.0 102412
29 october, fri
fri2900:00+4s22760 0.0 102421
03:00+3s22720 0.0 102512
06:00+2s227242 0.0 102617
09:00+7nw115890 0.0 1026335
12:00+8nnw2159100 0.0 1025818
15:00+8nnw1165100 0.0 1025675
18:00+5sse1181100 0.0 102810
21:00+5s1183100 0.0 102911
30 october, sat
sat3000:00+4sse1182100 0.0 102910
03:00+4sse118398 0.0 102910
06:00+3se1186100 0.0 103010
09:00+7nne11725 0.0 1030370
12:00+9nne326479 0.0 1029911
15:00+9ne336661 0.0 1029775
18:00+5se11795 0.0 103012
21:00+5ssw118180 0.0 103012